Weather History for EGJJ - June, 2014

Change the Weather History Date:

Friday, June 6, 2014

  Actual Average Record
Temperature  
Mean Temperature 64 °F -  
Max Temperature 77 °F 64 °F 77 °F (2014)
Min Temperature 52 °F 53 °F 50 °F (2008)
Growing Degree Days 14 (Base 50)    
Moisture  
Dew Point 55 °F    
Average Humidity 62    
Maximum Humidity 83    
Minimum Humidity 39    
Precipitation  
Precipitation 0.00 in - - ()
Sea Level Pressure  
Sea Level Pressure 29.78 in    
Wind  
Wind Speed 14 mph ()    
Max Wind Speed 25 mph    
Max Gust Speed -    
Visibility 8.8 miles    
Events      
Averages and records for this station are not official NWS values.
T = Trace of Precipitation, MM = Missing Value Source: Averaged Metar Reports

Daily Weather History Graph

Daily Weather History Graph

Search for Another Location

Airport or City:

Trip Planner

Search our weather history database for the weather conditions in past years. The results will help you decide how hot, cold, wet, or windy it might be!

Date:

Astronomy

Jun. 06, 2014 Rise Set
Actual Time 5:05 AM BST 9:09 PM BST
Civil Twilight 4:23 AM BST 9:52 PM BST
Nautical Twilight 3:23 AM BST 10:51 PM BST
Astronomical Twilight 1:29 AM BST 12:53 AM BST
Moon 1:40 PM BST (6/6) 1:27 AM BST (6/6)
Length of Visible Light 17h 28m
Length of Day
16h 04m
First Quarter, 56% of the Moon is Illuminated
Jun 6
First Quarter
Jun 13
Full
Jun 19
Last Quarter
Jun 27
New
Jul 5
First Quarter

Hourly Weather History & Observations

Time (BST) Temp. Dew Point Humidity Pressure Visibility Wind Dir Wind Speed Gust Speed Precip Events Conditions
12:00 AM 54 °F 50 °F 83% 29.89 in 28 mi East 8.1 mph - -   Scattered Clouds
1:00 AM 53 °F 48 °F 79% 29.88 in 28 mi East 9.2 mph - -   Clear
2:00 AM 55 °F 48 °F 71% 29.88 in 28 mi ESE 11.5 mph - -   Scattered Clouds
3:00 AM 56 °F 49 °F 69% 29.87 in 31 mi ESE 12.7 mph - -   Scattered Clouds
3:50 AM 55.4 °F 48.2 °F 77% 29.86 in - ESE 13.8 mph - N/A   Clear
4:00 AM 56 °F 49 °F 69% 29.86 in 31 mi ESE 15.0 mph - -   Scattered Clouds
4:20 AM 57.2 °F 48.2 °F 72% 29.83 in - ESE 15.0 mph - N/A   Clear
4:50 AM 57.2 °F 48.2 °F 72% 29.83 in - ESE 15.0 mph - N/A   Clear
5:00 AM 57 °F 48 °F 63% 29.84 in 31 mi ESE 15.0 mph - -   Partly Cloudy
5:20 AM 57.2 °F 48.2 °F 72% 29.83 in - ESE 15.0 mph - N/A   Clear
5:50 AM 55.4 °F 48.2 °F 77% 29.83 in - East 15.0 mph - N/A   Clear
6:00 AM 56 °F 48 °F 68% 29.85 in 28 mi ESE 13.8 mph - -   Scattered Clouds
6:20 AM 57.2 °F 50.0 °F 77% 29.83 in - ESE 15.0 mph - N/A   Clear
6:50 AM 57.2 °F 48.2 °F 72% 29.83 in - East 18.4 mph - N/A   Clear
7:00 AM 58 °F 49 °F 62% 29.83 in 31 mi East 16.1 mph - -   Scattered Clouds
7:20 AM 60.8 °F 48.2 °F 63% 29.80 in - ESE 17.3 mph - N/A   Clear
7:50 AM 60.8 °F 50.0 °F 68% 29.83 in - East 19.6 mph - N/A   Clear
8:00 AM 62 °F 50 °F 55% 29.82 in 31 mi ESE 16.1 mph - -   Scattered Clouds
8:20 AM 62.6 °F 50.0 °F 63% 29.80 in - ESE 16.1 mph - N/A   Clear
8:50 AM 64.4 °F 51.8 °F 64% 29.80 in - ESE 15.0 mph - N/A   Clear
9:00 AM 64 °F 52 °F 57% 29.81 in 31 mi ESE 16.1 mph - -   Scattered Clouds
9:20 AM 66.2 °F 51.8 °F 60% 29.80 in - ESE 12.7 mph - N/A   Clear
9:50 AM 68.0 °F 53.6 °F 60% 29.80 in - ESE 13.8 mph - N/A   Clear
10:00 AM 68 °F 53 °F 50% 29.80 in 31 mi ESE 13.8 mph - -   Scattered Clouds
10:20 AM 68.0 °F 53.6 °F 60% 29.80 in - ESE 17.3 mph - N/A   Clear
10:50 AM 69.8 °F 55.4 °F 60% 29.80 in - ESE 18.4 mph - N/A   Clear
11:00 AM 70 °F 56 °F 51% 29.80 in 31 mi ESE 17.3 mph - -   Scattered Clouds
11:20 AM 69.8 °F 57.2 °F 64% 29.77 in - ESE 17.3 mph - N/A   Clear
11:50 AM 71.6 °F 57.2 °F 60% 29.77 in - East 24.2 mph - N/A   Clear
12:00 PM 72 °F 57 °F 50% 29.78 in 28 mi ESE 18.4 mph - -   Scattered Clouds
12:20 PM 73.4 °F 57.2 °F 57% 29.77 in - East 23.0 mph - N/A   Clear
12:50 PM 75.2 °F 57.2 °F 53% 29.74 in - East 25.3 mph - N/A   Clear
1:00 PM 75 °F 56 °F 41% 29.74 in 28 mi East 23.0 mph - -   Scattered Clouds
1:20 PM 77.0 °F 57.2 °F 50% 29.74 in - ESE 25.3 mph - N/A   Clear
1:50 PM 77.0 °F 57.2 °F 50% 29.74 in - ESE 19.6 mph - N/A   Clear
2:00 PM 77 °F 56 °F 39% 29.74 in 28 mi East 23.0 mph - -   Scattered Clouds
2:20 PM 77.0 °F 57.2 °F 50% 29.74 in - ESE 15.0 mph - N/A   Clear
2:50 PM 73.4 °F 57.2 °F 57% 29.74 in - ESE 16.1 mph - N/A   Clear
3:00 PM 73 °F 58 °F 49% 29.74 in 31 mi ESE 17.3 mph - -   Scattered Clouds
3:20 PM 73.4 °F 59.0 °F 61% 29.74 in - SE 16.1 mph - N/A   Clear
3:50 PM 73.4 °F 59.0 °F 61% 29.74 in - SE 17.3 mph - N/A   Clear
4:00 PM 74 °F 58 °F 48% 29.73 in 31 mi SE 17.3 mph - -   Scattered Clouds
4:20 PM 73.4 °F 59.0 °F 61% 29.74 in - SE 16.1 mph - N/A   Clear
4:50 PM 73.4 °F 59.0 °F 61% 29.74 in - SE 16.1 mph - N/A   Clear
5:00 PM 74 °F 60 °F 51% 29.73 in 28 mi SE 18.4 mph - -   Scattered Clouds
5:20 PM 75.2 °F 59.0 °F 57% 29.74 in 6.2 mi SE 13.8 mph - N/A   Partly Cloudy
5:50 PM 73.4 °F 59.0 °F 61% 29.74 in - SE 16.1 mph - N/A   Clear
6:00 PM 74 °F 60 °F 53% 29.73 in 25 mi SE 13.8 mph - -   Partly Cloudy
6:20 PM 73.4 °F 59.0 °F 61% 29.74 in 6.2 mi SE 13.8 mph - N/A   Partly Cloudy
6:50 PM 71.6 °F 59.0 °F 64% 29.74 in - SE 10.4 mph - N/A   Clear
7:00 PM 72 °F 59 °F 55% 29.73 in 25 mi SE 15.0 mph - -   Mostly Cloudy
7:20 PM 71.6 °F 59.0 °F 64% 29.74 in - SE 13.8 mph - N/A   Clear
7:50 PM 73.4 °F 59.0 °F 61% 29.74 in 6.2 mi SE 11.5 mph - N/A   Partly Cloudy
8:00 PM 72 °F 59 °F 55% 29.74 in 28 mi SE 12.7 mph - -   Scattered Clouds
8:20 PM 69.8 °F 59.0 °F 68% 29.74 in 6.2 mi SE 9.2 mph - N/A   Partly Cloudy
8:50 PM 71.6 °F 59.0 °F 64% 29.74 in - SE 11.5 mph - N/A   Clear
9:00 PM 71 °F 59 °F 58% 29.74 in 28 mi SE 11.5 mph - -   Scattered Clouds
9:20 PM 69.8 °F 60.8 °F 73% 29.77 in - SSE 6.9 mph - N/A   Clear
9:50 PM 69.8 °F 59.0 °F 68% 29.77 in - SSW 10.4 mph - N/A   Clear
10:00 PM 69 °F 58 °F 59% 29.78 in 25 mi SSW 11.5 mph - -   Scattered Clouds
11:00 PM 60 °F 56 °F 83% 29.80 in 19 mi WNW 13.8 mph - -   Partly Cloudy